Home > Weather > Meyrin > Past weeks

Flag for Switzerland Past Weather in Meyrin, Geneva, Switzerland — Yesterday and Last 2 Weeks

Now
57 °F

Light rain. Broken clouds.


Feels Like: 54 °F
Forecast: 51 / 57 °F
Wind: 16 mph from Southwest

Location: Geneva Cointrin Airport

Current Time: May 30, 2016 at 11:03:41 AM

Latest Report: May 30, 2016 at 10:20 AM


Visibility: N/A

Pressure: 29.86 "Hg

Humidity: 82%

Dew Point: 52 °F

Location of MeyrinLocation

Past Weather in Meyrin — Graph

°F

Meyrin Temperature Yesterday

Maximum temperature yesterday: 64 °F (at 12:20 AM)
Minimum temperature yesterday: 57 °F (at 9:50 PM)
Average temperature yesterday: 61 °F

High & Low Weather Summary for the Past Weeks

 TemperatureHumidityPressure
High81 °F (May 27, 2:50 PM)100% (May 20, 3:50 AM)30.21 "Hg (May 20, 3:50 AM)
Low36 °F (May 16, 5:50 AM)31% (May 18, 4:20 PM)29.74 "Hg (May 29, 5:20 AM)
Average57 °F70%30.00 "Hg
* Reported May 15 9:20 AM — May 30 9:50 AM, Meyrin, Weather by CustomWeather, © 2016

Note: Actual official high and low records may vary slightly from our data, if they occured in-between our weather recording intervals... More about our weather records

Advertising

Meyrin Weather History for the Previous 24 Hours

Scroll right to see more
 ConditionsComfort  
Time TempWeatherWind HumidityBarometerVisibility
9:50 AM
Mon, May 30
57 °FBroken clouds.16 mph82%29.86 "HgN/A
9:20 AM57 °FBroken clouds.16 mph82%29.86 "HgN/A
8:50 AM57 °FBroken clouds.18 mph82%29.86 "HgN/A
8:20 AM55 °FLight rain. Broken clouds.15 mph82%29.86 "HgN/A
7:50 AM55 °FBroken clouds.15 mph88%29.86 "Hg6 mi
7:20 AM55 °FBroken clouds.14 mph88%29.83 "Hg6 mi
6:50 AM55 °FLight rain. Broken clouds.14 mph88%29.83 "Hg6 mi
6:20 AM55 °FLight rain. Partly cloudy.13 mph88%29.83 "Hg6 mi
5:50 AM55 °FLight rain. Passing clouds.12 mph88%29.83 "Hg6 mi
5:20 AM55 °FLight rain. Partly cloudy.13 mph88%29.83 "Hg6 mi
4:50 AM55 °FLight rain. Passing clouds.10 mph88%29.83 "HgN/A
4:20 AM55 °FLight rain. Partly cloudy.12 mph88%29.83 "HgN/A
3:50 AM55 °FLight rain. Partly cloudy.12 mph88%29.83 "HgN/A
2:50 AM55 °FLight rain. Partly cloudy.9 mph88%29.83 "Hg6 mi
2:20 AM55 °FLight rain. Partly cloudy.13 mph88%29.83 "HgN/A
1:50 AM55 °FLight rain. Passing clouds.8 mph88%29.86 "Hg6 mi
1:20 AM55 °FLight rain. Partly cloudy.6 mph88%29.86 "HgN/A
12:50 AM57 °FLight rain. Partly cloudy.6 mph82%29.86 "HgN/A
12:20 AM55 °FLight rain. Partly cloudy.3 mph88%29.86 "HgN/A
11:50 PM
Sun, May 29
57 °FSprinkles. Partly cloudy.5 mph82%29.86 "HgN/A
11:20 PM57 °FSprinkles. Partly cloudy.7 mph82%29.86 "HgN/A
10:50 PM57 °FSprinkles. Partly cloudy.12 mph82%29.86 "HgN/A
10:20 PM57 °FScattered showers. Passing clouds.12 mph82%29.83 "HgN/A
9:50 PM57 °FScattered showers. Broken clouds.15 mph82%29.83 "HgN/A
9:20 PM59 °FSprinkles. Broken clouds.14 mph77%29.83 "HgN/A
8:50 PM59 °FScattered showers. Broken clouds.14 mph77%29.83 "HgN/A
8:20 PM61 °FScattered showers. Partly sunny.14 mph72%29.83 "HgN/A
7:50 PM61 °FScattered showers. Partly sunny.14 mph72%29.80 "HgN/A
7:20 PM61 °FScattered showers. Partly sunny.14 mph72%29.80 "HgN/A
6:50 PM61 °FScattered showers. Partly sunny.13 mph77%29.80 "HgN/A
6:20 PM61 °FSprinkles. Broken clouds.15 mph77%29.80 "HgN/A
5:50 PM61 °FBroken clouds.13 mph77%29.80 "HgN/A
5:20 PM61 °FScattered showers. Broken clouds.14 mph83%29.77 "HgN/A
4:50 PM61 °FScattered showers. Broken clouds.13 mph83%29.77 "HgN/A
4:20 PM61 °FSprinkles. Broken clouds.14 mph83%29.77 "HgN/A
3:50 PM61 °FSprinkles. Broken clouds.13 mph83%29.77 "HgN/A
3:20 PM59 °FSprinkles. Broken clouds.13 mph88%29.77 "HgN/A
2:50 PM63 °FSprinkles. Broken clouds.15 mph73%29.77 "HgN/A
2:20 PM61 °FScattered showers. Broken clouds.10 mph83%29.77 "HgN/A
1:50 PM61 °FLight rain. Broken clouds.14 mph83%29.74 "HgN/A
1:20 PM61 °FBroken clouds.10 mph83%29.74 "HgN/A
12:50 PM63 °FBroken clouds.5 mph77%29.74 "HgN/A
12:20 PM59 °FPartly sunny.3 mph94%29.74 "HgN/A
11:50 AM61 °FRain showers. Broken clouds.6 mph83%29.74 "Hg5 mi
11:20 AM63 °FRain. Partly sunny.1 mph83%29.74 "Hg5 mi
Weather by CustomWeather, © 2016

See weather overviewHow to use our weather pages